Volver al catálogo

COSMOS 2491 DEB

ActivoPO
NORAD 44987·DEBRIS·🇷🇺 Russia

Lanzado Dec 25, 2013 desde Plesetsk Cosmodrome

Loading…

Próximos Pases (próximas 24 horas)

TLE

ActualizadoSource: Space-Track

Época: Sep 14, 2026, 02:32 UTC

1 44987U 13076H   26257.10597610  .00000919  00000-0  41669-2 0  9997
2 44987  82.4060  34.8152 0183430 251.8213 106.2838 12.72069996309593

Sigue COSMOS 2491 DEB en tiempo real con AllMySat

Download on the App Store